Change the Weather History Date:

Wednesday, April 24, 2013

  Actual Average Record
Temperature  
Mean Temperature 50 °F -  
Max Temperature 64 °F 65 °F 86 °F (1957)
Min Temperature 35 °F 43 °F 27 °F (1986)
Degree Days  
Heating Degree Days 16    
Moisture  
Dew Point 47 °F    
Average Humidity 80    
Maximum Humidity 94    
Minimum Humidity 48    
Precipitation  
Precipitation 0.60 in - - ()
Sea Level Pressure  
Sea Level Pressure 29.88 in    
Wind  
Wind Speed 9 mph (SW)    
Max Wind Speed 23 mph    
Max Gust Speed 32 mph    
Visibility 7 miles    
Events Rain    
Averages and records for this station are not official NWS values.
T = Trace of Precipitation, MM = Missing Value Source: NWS Daily Summary

Daily Weather History Graph

Daily Weather History Graph

Search for Another Location

Airport or City:

Trip Planner

Search our weather history database for the weather conditions in past years. The results will help you decide how hot, cold, wet, or windy it might be!

Date:

Astronomy

Apr. 24, 2013 Rise Set
Actual Time 6:38 AM EDT 8:17 PM EDT
Civil Twilight 6:09 AM EDT 8:46 PM EDT
Nautical Twilight 5:35 AM EDT 9:21 PM EDT
Astronomical Twilight 4:58 AM EDT 9:58 PM EDT
Moon 7:19 PM EDT (4/24) 5:41 AM EDT (4/24)
Length of Visible Light 14h 36m
Length of Day
13h 39m
Waxing Gibbous, 98% of the Moon is Illuminated
Apr 24
Waxing Gibbous
Apr 25
Full
May 2
Last Quarter
May 9
New
May 18
First Quarter

Hourly Weather History & Observations

Time (EDT) Temp. Windchill Dew Point Humidity Pressure Visibility Wind Dir Wind Speed Gust Speed Precip Events Conditions
12:54 AM 60.1 °F - 46.9 °F 62% 29.87 in 10.0 mi South 3.5 mph - N/A   Mostly Cloudy
1:54 AM 64.0 °F - 44.1 °F 48% 29.85 in 10.0 mi South 9.2 mph - N/A   Overcast
2:54 AM 64.0 °F - 45.0 °F 50% 29.82 in 10.0 mi South 9.2 mph - 0.00 in Rain Light Rain
3:54 AM 63.0 °F - 46.0 °F 54% 29.82 in 10.0 mi South 4.6 mph - 0.00 in   Overcast
4:54 AM 62.1 °F - 46.0 °F 56% 29.81 in 10.0 mi South 8.1 mph - N/A   Mostly Cloudy
5:54 AM 62.1 °F - 46.0 °F 56% 29.81 in 10.0 mi South 10.4 mph - N/A   Overcast
6:54 AM 59.0 °F - 51.1 °F 75% 29.81 in 10.0 mi South 4.6 mph - 0.03 in   Overcast
7:54 AM 60.1 °F - 50.0 °F 69% 29.80 in 10.0 mi South 9.2 mph - N/A   Overcast
8:54 AM 61.0 °F - 50.0 °F 67% 29.78 in 10.0 mi South 8.1 mph - N/A   Overcast
9:54 AM 57.9 °F - 53.1 °F 84% 29.78 in 4.0 mi SSW 13.8 mph 24.2 mph 0.08 in Rain Rain
10:42 AM 57.2 °F - 53.6 °F 88% 29.79 in 2.5 mi SSW 9.2 mph 18.4 mph 0.05 in Rain Light Rain
10:50 AM 57.2 °F - 53.6 °F 88% 29.79 in 1.8 mi SSW 9.2 mph - 0.08 in Rain Rain
10:54 AM 57.0 °F - 54.0 °F 89% 29.78 in 2.5 mi SSW 6.9 mph - 0.10 in Rain Rain
11:03 AM 57.2 °F - 53.6 °F 88% 29.77 in 4.0 mi South 9.2 mph - 0.01 in Rain Light Rain
11:26 AM 57.2 °F - 55.4 °F 94% 29.80 in 2.0 mi SSW 12.7 mph - 0.08 in Rain Heavy Rain
11:30 AM 57.2 °F - 55.4 °F 94% 29.79 in 1.8 mi SSW 11.5 mph 21.9 mph 0.10 in Rain Rain
11:33 AM 57.2 °F - 55.4 °F 94% 29.78 in 2.0 mi SSW 12.7 mph 21.9 mph 0.10 in Rain Rain
11:42 AM 57.2 °F - 55.4 °F 94% 29.80 in 4.0 mi SSW 12.7 mph 19.6 mph 0.11 in Rain Light Rain
11:54 AM 57.9 °F - 55.0 °F 90% 29.79 in 3.0 mi SSW 11.5 mph - 0.15 in Rain Rain
12:39 PM 57.2 °F - 55.4 °F 94% 29.81 in 2.5 mi SW 17.3 mph 23.0 mph 0.09 in Rain Rain
12:54 PM 57.9 °F - 55.0 °F 90% 29.79 in 5.0 mi SSW 9.2 mph - 0.12 in Rain Light Rain
1:01 PM 57.2 °F - 55.4 °F 94% 29.79 in 5.0 mi SSW 10.4 mph - 0.01 in Rain Light Rain
1:54 PM 57.0 °F - 54.0 °F 89% 29.77 in 7.0 mi SW 11.5 mph - 0.07 in Rain Light Rain
2:06 PM 57.2 °F - 53.6 °F 88% 29.78 in 2.5 mi WSW 12.7 mph 19.6 mph 0.02 in Rain Light Rain
2:14 PM 55.4 °F - 51.8 °F 88% 29.79 in 3.0 mi WNW 23.0 mph 29.9 mph 0.04 in Rain Rain
2:26 PM 51.8 °F - 48.2 °F 88% 29.81 in 8.0 mi WNW 21.9 mph 32.2 mph 0.05 in Rain Light Rain
2:54 PM 46.9 °F - 44.1 °F 90% 29.84 in 4.0 mi NW 18.4 mph 25.3 mph 0.05 in Rain Light Rain
3:11 PM 46.4 °F 41.1 °F 44.6 °F 93% 29.86 in 6.0 mi NW 11.5 mph 24.2 mph 0.00 in   Overcast
3:54 PM 44.1 °F 36.2 °F 39.9 °F 85% 29.91 in 10.0 mi NW 18.4 mph 25.3 mph 0.00 in   Overcast
4:54 PM 43.0 °F 36.0 °F 37.9 °F 82% 29.97 in 10.0 mi WNW 13.8 mph 24.2 mph N/A   Overcast
5:15 PM 42.8 °F 36.2 °F 37.4 °F 81% 29.99 in 10.0 mi WNW 12.7 mph 19.6 mph N/A   Overcast
5:54 PM 43.0 °F 35.4 °F 36.0 °F 76% 30.03 in 10.0 mi West 16.1 mph 21.9 mph N/A   Overcast
6:54 PM 42.1 °F 35.2 °F 35.1 °F 76% 30.08 in 10.0 mi WNW 12.7 mph 20.7 mph 0.00 in   Overcast
7:54 PM 42.1 °F 36.1 °F 35.1 °F 76% 30.11 in 10.0 mi West 10.4 mph - 0.00 in   Overcast
8:43 PM 42.8 °F 37.5 °F 33.8 °F 70% 30.13 in 10.0 mi WNW 9.2 mph - N/A   Overcast
8:54 PM 41.0 °F 35.8 °F 34.0 °F 76% 30.15 in 10.0 mi WNW 8.1 mph - N/A   Overcast
9:54 PM 39.0 °F - 33.1 °F 79% 30.18 in 10.0 mi Calm Calm - N/A   Clear
10:54 PM 35.1 °F - 32.0 °F 89% 30.20 in 10.0 mi Calm Calm - N/A   Clear
11:54 PM 35.1 °F - 33.1 °F 92% 30.21 in 8.0 mi Calm Calm - N/A   Clear